GFSMA_500_spd_000.txt.gz
Wind_Speed
10 10 10 12 12 12 13 13 12 12 11 11 13 13 13 12 11 9 8 7 6 8 10 13 13 16 20 18 19 14 13 13 11 10 7 6 5 7 8 7 5 4 4
7 8 7 8 8 9 10 11 11 11 11 12 11 11 11 12 11 11 11 10 8 9 10 12 14 16 18 21 24 19 16 14 13 12 11 9 8 7 9 9 8 6 5
4 5 6 6 7 8 9 9 9 10 9 10 11 11 12 11 9 9 9 9 10 9 10 12 15 18 18 19 18 25 19 17 16 15 13 13 11 11 10 10 11 10 7
3 5 5 6 7 7 7 9 11 13 13 11 11 12 12 11 11 10 9 9 8 9 10 10 13 15 18 19 19 16 25 22 19 17 15 14 14 13 12 10 11 11 10
3 4 6 7 9 9 8 8 12 13 14 13 13 12 12 12 12 11 12 13 12 10 8 9 10 13 15 19 20 21 17 26 23 20 19 17 16 16 15 13 12 12 11
6 6 6 8 9 11 11 11 13 14 14 13 13 13 13 13 13 12 11 13 14 13 12 11 14 13 12 14 18 21 23 23 26 25 23 22 20 19 18 16 15 14 13
10 11 10 12 13 13 12 12 13 12 12 12 12 14 13 13 12 12 12 13 14 14 14 13 11 14 14 15 15 17 21 23 25 27 29 25 25 22 21 20 19 18 17
13 16 15 14 15 15 14 13 13 11 11 12 12 12 13 12 12 11 11 13 16 14 16 17 16 15 16 16 15 17 20 22 23 24 25 31 30 28 26 24 22 21 20
21 22 21 19 18 17 16 15 14 14 12 13 12 11 12 13 12 12 12 13 15 15 16 20 20 20 18 19 20 19 20 22 24 25 25 30 31 33 31 28 27 25 24
22 20 21 21 19 18 19 17 18 18 15 14 13 13 13 16 16 15 14 13 14 16 18 18 20 23 23 23 22 23 23 24 26 27 28 28 31 32 36 34 32 29 28
22 22 23 21 19 18 18 19 19 19 17 16 14 15 16 18 19 19 17 14 14 16 16 18 20 21 25 27 28 27 27 27 29 30 31 31 32 33 33 40 38 35 33
21 21 21 21 21 21 19 17 18 20 20 19 17 18 19 19 22 22 21 20 19 19 23 24 25 27 28 31 32 34 32 32 34 35 36 34 35 36 37 37 42 42 39
21 22 23 25 24 21 19 18 19 24 23 21 21 22 23 21 22 22 21 21 22 24 26 29 30 31 31 32 32 34 37 38 38 39 40 40 39 39 40 42 42 45 45
24 26 27 28 28 25 22 21 23 26 25 24 25 26 27 25 24 23 21 21 24 26 28 30 32 35 34 33 35 37 38 41 40 40 43 45 45 43 43 44 46 47 49
24 26 28 29 27 28 25 25 26 29 29 27 27 29 28 29 27 25 23 24 26 27 31 34 32 33 35 39 42 46 45 42 40 44 44 47 48 48 46 45 47 50 52
23 27 29 29 33 32 30 28 28 28 30 28 28 31 30 31 30 27 27 23 27 29 30 33 35 36 39 43 48 50 53 51 47 42 45 45 48 51 51 51 49 51 53
33 35 33 31 32 31 32 33 31 31 30 29 28 30 31 32 31 25 21 23 27 30 33 36 36 36 40 47 52 53 55 52 45 42 44 50 50 51 54 54 54 53 54
38 36 27 40 45 33 38 36 32 35 34 32 31 31 32 32 28 23 30 32 32 34 37 37 38 38 44 49 52 56 54 52 47 46 42 44 48 48 51 54 54 57 57
35 42 44 40 35 42 38 37 35 34 35 34 34 33 34 36 35 38 34 30 35 38 39 41 37 42 49 53 55 54 51 51 50 51 48 47 49 50 50 52 56 57 60
41 41 34 38 19 26 28 32 38 33 35 37 37 33 33 36 38 35 34 38 46 48 50 42 39 45 51 53 54 51 50 48 51 50 48 46 48 51 53 50 52 57 60
43 35 31 27 24 28 28 34 37 35 36 37 38 34 35 35 38 38 36 37 42 42 41 38 45 49 53 54 53 50 45 49 46 45 45 44 45 46 49 51 51 54 58
47 34 30 36 33 29 31 35 37 38 39 37 37 41 39 40 41 42 45 45 42 51 42 44 43 53 53 50 50 48 47 48 40 41 40 37 38 41 44 49 57 55 53
45 43 40 39 40 36 33 31 33 30 32 33 35 37 38 42 43 38 42 38 41 46 47 44 44 51 50 48 48 47 47 43 39 40 38 35 39 37 46 54 61 55 46
51 48 43 42 44 39 33 31 27 28 28 36 40 34 32 28 32 36 36 40 44 45 44 47 50 51 50 50 49 46 42 38 39 38 36 37 42 49 56 57 59 55 51
46 48 46 45 44 38 30 30 27 26 23 24 24 29 33 35 40 44 40 42 48 49 48 50 53 52 53 49 48 41 39 38 40 40 39 40 44 49 48 47 52 54 53
52 50 46 41 39 33 34 31 29 30 27 24 32 36 40 44 43 46 44 49 53 52 53 54 54 53 48 46 45 42 42 40 39 36 37 42 44 48 30 28 40 43 42

GFSMA_500_spd_003.txt.gz
Wind_Speed
11 10 10 11 11 11 11 11 11 10 9 9 10 11 10 10 10 10 9 8 8 5 6 8 8 14 17 20 18 17 16 14 12 12 11 8 6 6 4 5 5 4 2
7 7 7 7 7 7 7 9 9 10 11 11 11 10 10 10 8 8 9 10 9 8 6 6 8 11 16 18 20 28 21 19 15 13 13 11 8 6 6 6 7 6 4
5 4 6 5 5 6 7 8 9 10 10 11 11 11 11 11 9 9 8 7 9 8 8 8 9 9 12 16 17 20 17 22 19 15 14 13 13 10 9 9 9 9 8
2 4 4 5 6 7 8 10 10 12 14 13 13 13 13 12 12 11 10 8 6 7 8 8 9 10 11 11 13 17 18 21 20 19 17 16 15 15 12 11 10 10 10
1 2 4 6 8 10 11 12 14 14 14 14 15 15 13 13 13 12 11 10 9 6 6 10 11 10 12 12 11 14 14 15 18 23 21 20 17 17 16 14 12 11 11
3 3 5 7 9 12 14 14 15 15 15 14 15 15 14 13 14 14 13 13 12 11 9 8 11 14 13 12 12 12 13 14 15 14 28 25 22 20 18 17 15 13 12
9 9 9 12 13 14 16 17 15 15 14 14 14 14 14 15 14 13 14 15 15 15 14 13 14 15 14 14 14 13 14 13 14 16 19 19 27 23 22 21 20 18 16
12 14 16 17 17 18 18 16 17 15 15 15 15 14 13 13 14 13 13 15 17 16 14 13 15 17 15 17 18 16 16 15 16 16 16 19 19 28 25 25 24 23 21
17 21 18 17 19 20 19 17 18 18 17 17 18 17 16 14 14 13 15 16 17 18 17 15 15 17 18 17 19 20 20 19 19 18 19 18 20 21 32 29 27 27 26
22 23 20 21 21 22 21 20 19 20 20 19 19 20 18 18 17 15 14 15 15 17 19 18 19 19 20 20 20 21 22 24 25 24 22 23 22 23 26 31 34 31 30
24 24 24 23 22 22 23 23 23 21 21 20 22 21 22 22 21 21 20 16 14 15 17 18 21 21 22 21 21 27 27 27 28 28 27 27 29 28 27 30 33 38 34
24 25 25 24 24 25 25 26 26 24 21 22 24 24 24 25 26 25 25 22 20 17 16 18 20 24 25 26 26 27 29 30 30 30 31 31 32 33 33 32 32 35 39
27 27 28 29 28 26 26 27 26 26 24 24 26 27 28 28 29 29 29 28 26 23 22 20 21 24 28 27 27 30 28 29 31 33 34 35 34 35 37 37 37 37 39
25 23 28 29 31 35 32 25 28 27 27 28 28 28 30 29 30 31 32 32 30 29 28 23 25 28 31 33 27 28 32 36 38 36 36 36 36 39 40 42 41 42 42
22 23 33 31 32 38 37 42 31 30 31 32 33 32 33 32 31 31 33 33 34 34 34 34 31 32 29 30 31 33 33 33 43 44 44 43 38 37 43 46 47 46 46
27 25 30 31 30 33 31 35 37 33 32 33 35 34 35 35 33 31 34 33 34 35 29 31 31 34 32 33 34 36 40 42 45 48 49 47 47 43 41 47 49 52 50
21 25 34 29 30 34 32 33 38 35 36 40 37 37 37 36 36 34 33 32 32 29 33 35 31 32 33 35 37 38 42 43 50 54 56 52 51 45 41 47 54 54 54
22 22 24 32 31 33 24 21 27 38 46 41 38 40 39 38 38 38 37 35 35 37 39 34 36 38 39 40 42 43 47 52 56 56 57 52 48 44 44 43 50 55 56
21 29 27 27 30 34 32 29 32 38 41 39 40 38 39 37 38 38 39 39 39 42 40 40 42 43 46 49 44 50 53 55 58 56 53 50 45 46 48 49 48 51 49
28 30 32 30 32 36 35 34 39 42 42 42 37 41 40 38 35 37 39 40 40 42 44 44 40 44 46 53 56 55 57 55 61 52 47 46 45 46 48 50 49 50 52
33 36 37 33 34 43 43 42 45 47 44 38 37 36 41 36 35 39 38 39 43 46 47 49 56 49 53 56 58 56 52 56 53 49 47 46 46 44 44 42 45 47 49
40 42 46 43 47 42 41 45 41 42 42 37 28 33 36 31 36 36 42 43 44 43 41 46 43 47 48 57 55 53 54 56 46 46 47 45 47 42 41 40 39 41 46
47 49 53 57 57 46 42 44 40 39 38 36 30 31 31 33 37 34 35 34 35 36 44 43 47 49 54 56 58 57 57 51 47 45 46 43 44 41 38 37 39 43 46
50 51 57 48 46 48 42 43 39 36 34 35 37 33 32 32 31 32 34 35 37 45 50 49 50 53 57 57 58 58 55 51 45 44 46 44 43 43 42 40 42 47 54
57 57 49 52 53 51 48 40 36 35 34 32 35 34 35 32 35 39 41 45 47 49 51 52 54 56 58 61 60 59 52 48 43 42 46 44 44 44 44 40 42 54 65
60 53 49 51 54 52 44 35 34 33 29 33 35 37 38 40 46 48 50 51 45 48 50 54 56 58 58 54 51 47 43 42 39 38 37 35 35 41 38 36 47 60 51

GFSMA_500_spd_006.txt.gz
Wind_Speed
12 11 11 11 11 10 10 10 11 10 10 10 9 10 10 9 9 10 11 11 9 6 5 5 8 9 9 9 13 14 12 14 13 11 9 8 7 5 3 3 2 3 3
8 9 6 5 5 6 7 8 9 9 10 11 11 10 10 11 10 9 9 10 10 10 9 6 6 8 8 12 13 11 14 17 21 15 12 10 8 7 4 4 4 4 5
4 5 3 4 4 7 8 9 9 12 12 12 13 12 12 11 11 10 9 8 9 9 10 10 7 7 8 10 13 11 13 17 17 18 14 12 11 9 9 7 7 7 7
2 2 3 4 5 8 10 11 11 12 12 13 14 13 13 13 12 12 11 9 7 8 10 11 10 10 11 10 9 10 12 15 18 21 16 14 13 13 12 10 9 9 10
2 4 4 6 7 8 11 14 15 16 16 16 14 15 13 13 13 14 13 11 9 7 10 10 12 12 11 11 11 9 9 9 13 10 16 15 16 15 15 14 12 11 11
6 5 8 9 11 14 14 15 15 16 16 17 14 15 14 14 13 14 13 12 11 10 9 12 11 13 14 12 11 12 10 9 8 8 9 9 20 19 18 18 16 15 13
9 9 11 14 16 18 19 19 18 17 17 17 17 15 17 15 13 15 13 13 12 12 12 12 11 13 14 13 12 13 14 12 11 9 9 12 11 22 23 21 19 18 17
12 14 17 20 20 19 21 22 21 19 17 18 17 16 15 15 16 14 15 14 14 13 12 13 10 13 15 14 15 15 15 15 14 14 13 12 15 17 21 26 22 20 20
16 18 21 22 22 22 23 24 24 23 21 19 19 19 18 18 17 15 16 18 17 16 14 14 16 12 12 15 14 13 15 15 17 17 17 18 16 16 17 22 26 24 24
20 21 22 23 23 24 24 24 23 24 25 24 22 22 19 21 21 21 17 17 20 25 17 16 17 17 15 14 15 15 15 17 18 18 20 21 20 19 19 19 21 29 29
20 22 22 22 22 24 24 26 26 25 27 27 25 22 24 23 24 25 25 22 19 16 25 22 19 21 22 19 18 19 18 19 18 17 18 19 21 23 23 24 23 24 27
20 19 19 19 18 20 20 21 22 23 25 26 27 27 26 26 26 27 29 29 28 25 20 22 24 23 21 23 22 21 23 22 18 16 15 16 17 20 22 26 28 29 28
16 12 12 19 22 24 27 28 32 24 21 24 25 28 30 30 32 30 30 31 32 31 28 26 26 26 26 26 25 25 24 23 23 25 25 25 27 24 21 24 29 32 33
11 12 13 17 18 25 28 27 29 28 27 21 22 25 29 32 33 34 33 34 34 33 32 31 31 31 29 32 29 27 26 25 26 26 30 33 35 38 39 36 28 29 38
10 12 17 20 20 18 30 31 30 30 28 23 22 25 27 31 37 38 38 37 37 34 33 35 34 33 29 28 30 28 31 32 30 29 32 36 38 40 44 43 42 40 32
9 12 16 16 23 24 28 33 33 33 28 23 25 28 35 39 36 36 37 39 40 38 36 36 36 34 31 32 33 34 30 31 35 35 33 33 42 45 48 49 49 50 47
11 10 16 20 23 28 28 30 30 26 29 32 33 33 36 38 37 36 37 39 40 40 38 36 35 34 36 35 37 38 37 36 38 40 41 48 51 50 48 51 54 53 49
10 13 17 20 24 31 32 32 38 41 39 35 34 36 40 38 37 36 36 38 39 39 40 39 41 43 43 42 42 41 39 42 46 50 48 54 53 58 54 57 58 54 46
11 18 24 30 33 34 35 41 44 45 42 40 40 40 39 34 32 34 35 37 40 39 40 44 47 46 45 47 48 44 44 46 52 54 58 58 58 53 53 58 58 50 47
13 19 23 30 35 40 43 35 42 39 41 43 37 39 37 34 31 31 34 36 37 37 39 42 35 39 50 51 52 56 57 51 57 53 54 54 53 54 55 53 47 48 49
22 27 30 36 42 44 43 38 37 37 40 43 38 36 36 33 33 31 31 32 33 38 44 44 49 46 43 42 42 44 44 48 53 56 57 57 53 55 55 48 44 48 50
27 28 34 40 45 50 35 41 42 44 40 42 37 32 34 33 35 31 31 35 34 37 39 34 39 38 42 50 51 51 53 54 54 55 60 55 52 54 46 44 45 46 44
31 34 38 46 50 55 46 42 46 44 46 38 36 33 33 33 33 34 39 42 36 38 38 37 44 46 50 52 52 53 57 57 59 56 54 50 44 48 42 43 45 43 43
34 39 43 48 53 58 53 44 47 47 46 39 35 32 33 33 31 37 41 40 42 42 44 48 50 52 51 50 54 57 57 60 56 49 44 47 43 40 42 43 45 46 45
38 41 46 50 57 51 51 51 49 48 44 38 32 36 31 33 39 42 43 44 47 50 52 53 52 51 51 54 56 59 61 57 49 43 40 41 38 36 39 39 39 39 43
44 46 48 52 56 55 59 51 50 41 39 38 38 38 40 40 43 46 48 49 52 55 53 52 54 53 56 58 56 53 48 46 43 38 40 39 37 38 37 40 38 36 40

GFSMA_500_spd_009.txt.gz
Wind_Speed
11 9 10 13 11 8 10 12 12 12 11 10 10 10 10 10 11 11 12 12 13 12 11 9 9 8 6 4 8 9 8 8 10 10 8 7 4 2 2 2 1 1 1
9 10 10 9 7 9 12 12 11 12 11 11 11 10 9 9 9 10 10 10 10 10 9 10 9 8 7 8 9 8 7 7 11 17 12 9 7 4 2 3 3 2 2
7 7 7 8 10 12 13 13 14 13 13 13 11 10 11 10 9 10 10 9 9 9 8 8 8 7 7 7 8 7 10 12 5 15 17 13 10 8 6 5 5 5 4
4 6 7 7 9 12 13 14 16 16 16 15 14 11 10 9 9 9 8 8 8 9 8 8 9 9 10 10 10 8 8 9 11 13 15 14 11 9 9 8 8 7 7
4 6 7 9 10 11 13 15 16 17 17 17 15 14 12 10 9 9 9 8 7 9 9 9 10 10 12 12 10 10 10 8 9 7 4 12 11 12 11 12 12 10 9
5 7 9 11 13 16 17 18 18 18 18 18 17 15 14 12 10 9 8 8 7 10 10 10 9 9 11 11 9 9 9 11 9 7 6 7 16 16 16 15 14 14 12
7 10 13 15 18 18 18 18 19 20 21 18 16 18 17 13 13 10 10 9 7 8 8 12 11 9 10 11 12 11 10 9 9 10 8 7 10 8 20 19 18 17 17
11 13 16 19 20 19 20 19 18 19 19 19 18 16 16 17 15 16 14 13 12 11 9 8 11 11 12 11 11 12 12 11 10 11 12 11 11 10 11 11 23 21 19
14 16 17 17 16 16 16 17 16 16 17 18 18 18 17 16 16 12 17 17 17 15 13 12 10 11 14 13 12 11 10 11 12 13 14 15 15 14 13 11 11 24 23
14 15 16 15 14 14 15 17 20 21 19 19 20 20 20 19 18 17 16 14 23 22 17 19 16 13 14 17 17 14 15 15 13 14 15 15 15 16 16 16 13 12 20
11 12 13 14 14 15 16 19 19 19 20 21 20 19 19 21 21 21 21 20 18 22 29 25 21 22 18 18 18 16 16 16 14 13 11 10 8 10 13 16 17 17 17
10 10 12 11 14 14 17 21 21 24 26 20 17 18 18 19 22 24 25 26 26 25 21 25 30 24 22 25 24 22 19 19 16 16 14 10 7 8 10 11 14 17 20
8 7 11 11 9 11 20 25 25 29 33 22 18 17 18 20 21 22 27 28 28 30 30 27 24 29 30 28 26 27 27 26 24 20 20 18 15 16 19 19 20 20 18
5 8 9 10 10 14 18 23 26 30 32 32 18 17 19 21 21 22 27 33 30 29 31 32 29 27 27 31 31 25 25 26 28 26 24 23 20 20 23 23 26 30 31
5 8 6 8 12 15 17 21 25 32 30 30 26 23 22 24 27 29 30 29 30 31 32 33 33 32 31 29 29 27 28 27 26 29 25 25 26 24 24 23 34 39 39
11 5 6 11 11 17 20 20 26 30 29 27 24 27 28 29 29 31 27 27 30 31 33 35 37 37 34 33 32 30 29 30 32 31 33 29 27 29 32 35 37 41 42
4 4 6 7 11 16 24 26 29 30 33 32 27 28 31 31 28 28 25 25 28 31 33 34 35 35 39 38 36 36 36 35 35 34 35 32 33 35 39 41 47 48 49
5 6 12 14 15 16 23 34 38 37 33 31 33 32 33 36 35 29 26 27 28 29 29 32 33 36 38 39 43 45 45 44 41 42 40 40 41 43 44 49 52 55 55
8 7 11 12 19 24 30 37 38 40 33 30 34 36 37 33 35 30 28 31 28 27 27 28 30 34 37 42 44 38 42 48 47 47 50 53 53 52 52 54 52 54 51
9 10 17 22 25 30 34 34 33 45 41 33 33 36 40 35 33 32 30 31 34 28 26 31 31 33 37 35 36 32 36 36 33 37 45 47 50 50 55 54 53 52 53
16 18 20 20 22 29 34 41 42 42 40 39 38 40 39 36 33 31 30 30 31 33 32 40 35 34 35 34 37 39 41 40 44 48 50 50 52 54 54 55 55 54 51
13 17 20 24 25 29 38 42 45 41 44 45 39 42 40 35 33 32 32 33 31 32 35 41 38 39 41 42 44 48 50 50 46 45 48 49 53 55 56 51 46 48 48
18 21 23 26 29 33 39 41 43 48 49 49 45 39 36 33 33 32 31 30 35 36 41 40 43 43 46 48 52 54 50 49 49 51 53 51 54 51 43 41 43 44 45
22 22 26 29 34 38 42 44 47 51 52 47 44 34 31 33 35 35 35 33 39 44 47 46 46 48 52 54 54 53 52 53 52 51 49 48 44 40 37 38 41 43 45
27 20 26 31 36 42 47 47 51 55 50 44 38 34 33 36 36 37 39 41 46 48 50 52 52 54 57 55 53 55 53 51 47 41 42 44 38 35 35 37 39 40 42
36 27 32 35 39 45 48 50 54 56 45 39 38 36 34 35 36 42 44 46 49 50 46 50 54 56 55 55 56 54 49 44 43 41 38 37 36 36 33 35 38 40 41

GFSMA_500_spd_012.txt.gz
Wind_Speed
11 11 10 11 12 12 11 12 13 12 11 12 11 11 11 9 9 9 8 10 10 10 9 8 7 6 6 4 6 7 6 6 7 9 10 7 5 3 2 3 4 5 2
9 8 10 10 10 10 11 11 10 12 14 14 14 14 11 11 9 8 8 8 8 8 8 7 7 7 5 3 4 5 6 9 6 9 13 12 8 6 4 4 3 4 3
9 9 8 7 8 8 10 12 12 12 13 13 13 13 12 11 10 10 9 7 6 6 7 7 6 6 7 8 7 5 7 10 7 6 8 16 12 10 8 6 6 5 4
6 6 7 9 9 12 13 14 13 14 14 13 12 11 11 11 10 10 11 8 7 6 6 6 7 6 7 8 7 6 7 10 10 10 12 17 16 13 12 10 9 7 6
5 7 8 9 11 12 14 15 16 16 14 14 11 10 10 10 11 10 10 10 8 7 7 7 7 6 8 9 9 8 8 8 10 10 10 10 13 13 13 12 12 10 9
7 8 9 11 15 16 14 14 14 15 15 14 13 11 8 8 9 8 8 10 10 9 7 7 7 6 8 9 9 9 9 8 7 9 8 8 13 11 14 14 13 13 12
7 8 12 15 16 14 13 14 15 15 13 14 12 12 10 8 9 8 7 6 8 11 11 9 7 6 7 7 8 9 10 10 7 6 5 7 6 6 8 17 18 16 15
7 10 12 13 14 15 14 16 17 18 18 16 14 11 11 9 12 9 10 11 8 7 9 11 12 11 10 9 7 6 9 10 11 11 9 9 9 9 9 8 8 19 21
7 9 10 13 15 17 17 17 20 21 19 18 17 14 13 11 9 13 12 13 14 13 11 10 13 15 14 13 13 12 11 11 12 12 14 15 15 14 13 12 10 11 18
7 8 11 12 14 14 14 16 17 19 20 20 19 17 14 14 11 11 11 15 17 16 17 16 13 17 17 18 16 15 16 12 12 12 11 14 16 15 16 15 15 14 10
12 11 11 10 10 9 9 11 13 16 19 19 15 12 13 13 13 13 13 13 16 20 19 20 22 18 17 19 22 19 16 17 14 13 11 13 11 12 11 11 11 12 14
15 11 7 6 7 6 13 14 15 16 23 21 9 7 10 11 13 15 15 16 16 17 22 25 23 23 23 21 22 24 22 23 20 18 18 16 15 13 13 11 8 8 8
12 7 3 3 4 5 8 10 13 16 20 21 19 14 13 14 14 16 17 18 21 25 26 23 25 27 25 25 26 26 26 25 24 23 22 21 21 18 16 16 12 11 11
6 1 3 3 6 7 8 12 15 18 20 23 21 20 20 19 19 19 21 25 26 28 27 23 22 21 24 27 26 30 30 28 26 24 23 25 25 25 23 21 18 17 16
4 3 4 6 7 9 9 9 16 20 22 22 21 19 20 21 22 22 21 22 23 24 24 24 25 24 25 25 25 26 26 28 28 28 27 26 24 26 26 25 24 24 23
5 7 9 9 10 8 8 13 22 23 26 25 22 20 20 24 26 23 20 21 21 20 23 22 24 25 24 23 24 27 29 29 31 32 32 34 32 28 26 26 26 27 29
8 8 9 9 11 14 14 16 20 25 30 31 29 27 25 26 28 29 24 21 19 18 20 23 22 23 25 22 21 24 26 32 36 40 40 39 40 39 35 35 35 33 34
7 7 7 7 8 11 15 17 21 16 27 31 30 30 32 32 33 31 29 27 26 24 23 22 23 23 24 26 24 24 28 27 31 34 34 41 46 49 52 56 60 54 46
10 10 9 11 12 16 19 20 24 23 29 33 34 36 34 35 38 36 31 31 31 28 26 22 21 20 24 25 23 25 27 30 26 29 30 32 32 34 36 40 43 44 46
10 12 13 14 17 17 18 22 26 27 28 31 38 40 40 40 41 38 35 33 34 33 31 27 23 23 27 32 34 34 34 34 37 40 40 40 41 44 45 46 45 46 47
14 14 16 14 13 16 18 23 25 29 32 36 40 44 43 40 40 37 36 34 33 34 35 32 27 29 34 35 37 39 39 42 40 45 49 48 50 48 45 44 45 47 52
17 15 15 15 15 18 19 23 25 30 32 36 41 45 39 37 35 32 31 29 33 35 36 34 34 38 42 42 42 43 46 46 45 47 51 44 48 50 51 52 52 53 52
23 20 21 18 19 20 22 24 28 30 33 37 43 43 35 31 31 32 31 31 34 36 39 38 39 43 46 47 48 48 50 51 52 47 51 48 48 50 49 46 45 46 49
25 27 29 25 28 26 24 26 29 34 36 41 45 38 32 32 33 31 32 33 34 37 40 41 44 49 51 51 50 50 53 56 51 50 55 54 46 46 43 41 40 41 42
33 32 37 35 34 27 28 29 34 37 39 44 42 33 32 31 35 31 33 35 38 43 42 43 47 50 50 54 57 56 53 52 51 48 47 49 45 44 41 36 38 41 40
37 38 41 36 30 31 35 33 37 38 44 46 43 37 37 38 38 37 37 37 38 40 41 45 51 55 57 54 53 55 53 50 46 43 44 45 43 41 38 38 39 41 42

GFSMA_500_spd_015.txt.gz
Wind_Speed
12 12 11 10 10 10 9 9 9 10 12 11 12 11 10 9 9 9 9 9 8 7 7 6 7 6 7 9 11 9 6 7 8 10 13 11 8 4 2 4 4 4 3
12 9 8 8 8 10 10 9 10 10 8 8 9 9 9 8 8 8 8 8 7 6 6 5 5 6 4 1 1 3 5 6 5 9 8 16 12 9 6 6 6 4 3
9 7 8 9 9 9 9 9 9 9 9 10 8 7 7 7 8 9 7 6 6 6 5 4 4 3 4 3 4 3 4 7 8 5 9 10 16 12 9 8 8 7 6
5 5 6 7 9 11 12 11 12 11 10 9 7 4 4 5 6 7 8 7 6 6 6 6 4 3 5 6 5 5 5 6 6 7 8 8 16 13 11 10 9 8 8
4 4 4 5 7 10 9 10 10 11 13 12 9 6 4 3 3 5 6 6 6 6 6 6 5 5 5 7 7 6 5 4 4 4 5 9 11 13 13 11 12 11 9
3 2 4 8 11 12 12 13 14 14 14 15 13 9 6 4 4 3 5 6 6 5 5 6 6 7 7 6 7 8 8 9 7 7 4 3 6 12 12 12 12 13 13
1 5 8 10 12 15 17 17 16 16 15 15 14 13 11 7 7 5 5 5 7 7 7 6 6 6 8 9 9 7 7 8 10 9 9 7 4 4 2 15 13 15 15
3 6 9 12 14 17 16 16 16 17 18 17 15 12 12 12 10 9 9 7 7 8 9 9 8 9 9 10 12 12 12 11 10 12 11 12 11 9 8 8 8 8 16
6 8 11 12 15 15 13 14 17 19 21 22 18 11 10 10 11 11 11 11 10 10 10 10 12 11 11 12 14 14 14 14 15 11 14 15 14 14 15 13 12 11 15
9 12 12 13 14 11 11 12 15 15 20 18 11 8 6 8 9 11 12 11 12 13 13 14 15 15 15 15 16 17 17 15 14 15 12 15 18 17 17 17 16 15 14
13 14 12 10 9 10 9 12 10 12 18 20 12 8 7 8 9 9 11 14 17 17 16 17 19 19 21 19 18 19 20 20 18 16 15 15 15 18 20 19 18 17 14
15 14 10 8 8 9 9 11 11 13 14 17 15 13 11 11 12 13 14 14 14 17 19 21 24 25 23 20 21 20 21 22 22 22 22 20 18 19 19 21 20 21 18
15 12 8 9 8 7 8 7 9 12 14 16 18 14 12 12 12 12 14 16 18 20 22 26 26 24 24 24 22 21 21 21 22 23 23 24 24 24 22 23 23 21 22
13 12 11 8 8 9 11 10 12 14 15 16 17 17 17 17 16 17 16 17 20 21 21 20 19 20 21 22 23 25 27 27 24 22 24 24 25 27 28 27 26 27 25
14 13 12 10 10 13 15 11 10 12 18 19 18 17 17 20 21 23 24 19 17 18 18 18 21 19 17 19 21 22 23 23 26 27 28 29 29 29 28 28 28 28 29
16 16 14 11 12 13 13 15 16 16 16 22 23 23 20 19 21 23 26 28 25 21 20 19 19 18 20 19 20 21 22 24 25 27 29 32 33 33 33 33 33 33 30
18 19 16 13 13 13 13 12 16 17 17 20 22 23 25 26 25 26 28 29 26 27 27 27 25 21 20 18 17 17 17 20 24 30 33 33 35 38 41 45 42 39 39
22 21 17 14 14 12 12 15 16 13 16 17 20 25 28 31 31 30 30 30 29 28 28 26 25 23 20 20 19 21 22 23 24 27 27 31 30 33 30 32 43 48 48
22 20 18 18 17 14 13 15 18 16 17 20 24 28 31 36 36 31 31 29 30 31 31 24 25 25 25 23 22 25 25 29 31 33 32 29 34 37 37 37 38 39 40
23 23 23 23 20 16 15 16 18 17 19 21 24 28 33 37 35 30 31 31 30 32 30 30 27 29 30 29 31 33 33 37 35 36 35 38 39 39 43 45 45 45 46
24 24 26 25 22 22 18 19 19 19 20 22 22 29 33 35 31 27 28 30 28 29 30 31 31 32 34 37 39 39 40 43 43 44 44 44 47 46 45 44 44 44 45
28 27 25 27 26 23 23 24 26 26 19 19 24 28 31 29 27 28 27 27 30 30 33 36 37 38 38 39 42 46 48 50 47 47 49 48 51 52 52 49 45 46 45
29 30 30 29 28 29 26 26 37 43 26 21 24 27 31 30 29 29 30 33 33 35 37 38 37 40 44 46 46 48 49 50 51 54 57 56 53 53 52 50 49 47 44
33 35 36 34 33 32 30 32 34 27 23 24 26 30 34 33 33 32 36 37 37 38 40 42 44 45 45 43 46 48 53 57 54 52 52 52 52 49 48 46 45 44 44
35 38 40 38 38 35 35 36 34 27 23 26 28 32 37 35 35 35 37 39 41 42 43 42 42 42 45 47 52 57 52 52 49 49 48 47 46 43 42 42 44 46 46
34 40 46 44 42 41 42 41 33 29 28 31 31 34 37 37 39 41 42 42 42 43 41 41 46 48 48 52 50 49 46 44 42 43 45 45 45 45 43 43 45 47 47

GFSMA_500_spd_018.txt.gz
Wind_Speed
13 13 12 12 10 9 10 10 11 11 10 9 8 8 9 9 9 9 8 7 7 7 7 5 4 6 7 5 11 10 12 9 7 9 9 12 11 8 5 6 5 5 4
12 11 10 8 7 7 7 9 9 9 10 9 7 5 6 7 8 9 9 8 7 7 5 4 4 5 4 1 4 6 7 7 7 7 9 9 15 12 8 8 8 7 6
9 9 8 6 7 8 8 8 7 7 7 6 5 6 3 3 4 8 9 8 6 7 6 4 3 2 3 3 4 5 8 7 3 1 4 9 11 15 11 9 9 8 7
6 7 4 5 6 9 10 8 8 8 7 7 6 5 4 2 1 3 5 7 5 6 4 4 4 2 2 3 3 4 7 9 7 4 2 5 9 16 14 12 10 9 8
4 3 2 5 9 11 12 11 11 11 9 8 7 7 6 5 4 2 1 4 7 5 5 4 4 5 6 6 5 5 6 7 7 5 5 6 8 17 15 13 12 12 11
2 1 4 7 10 13 14 14 12 10 11 10 10 8 6 7 7 6 4 3 2 5 6 6 5 5 5 7 9 8 7 6 6 7 7 7 6 10 15 13 12 12 13
1 2 5 8 12 14 15 16 16 17 17 14 11 9 8 8 8 8 9 6 4 3 4 5 6 7 7 7 8 9 12 12 10 7 7 8 7 4 6 13 13 14 15
4 7 9 12 13 15 14 15 15 18 20 19 12 7 6 7 8 9 9 10 9 8 7 8 8 8 9 9 10 11 13 14 14 15 13 10 10 10 10 11 10 18 16
5 8 10 12 13 11 12 12 18 21 22 22 12 5 7 6 7 8 9 10 11 11 11 12 12 12 12 12 14 13 14 16 16 15 14 15 12 12 14 14 13 14 14
7 10 12 12 11 9 11 12 17 17 20 21 15 11 9 7 8 9 8 9 11 12 13 14 16 16 16 16 15 16 17 17 17 17 16 14 15 15 13 13 15 18 19
10 11 11 11 11 9 10 12 16 13 14 18 17 14 12 10 8 9 10 12 12 14 15 16 16 17 19 20 20 19 18 20 19 19 20 20 18 18 18 16 16 17 17
11 12 12 12 11 7 8 11 12 12 12 13 14 12 12 13 13 12 12 12 14 16 18 19 21 24 24 22 21 20 20 20 22 21 20 22 22 23 22 21 19 19 20
11 11 14 15 12 7 7 9 12 15 14 13 11 11 11 11 13 14 15 15 15 16 17 17 19 20 20 20 20 21 21 21 22 23 24 25 24 25 26 25 24 23 25
11 11 15 17 15 9 8 12 12 13 13 13 10 10 11 11 11 12 13 16 15 17 20 18 16 17 18 20 21 21 20 22 22 23 24 24 23 24 26 27 28 28 28
14 12 17 18 17 10 10 13 13 17 16 11 12 11 11 12 14 15 14 14 17 17 17 18 18 19 18 19 20 21 22 22 23 23 25 26 26 28 31 32 31 32 31
16 15 17 20 20 11 11 13 14 15 16 16 15 14 14 14 16 20 19 17 16 17 18 19 20 19 21 21 21 21 21 23 23 24 25 27 28 30 32 35 35 34 35
18 18 20 21 20 13 13 13 13 15 14 13 12 15 17 21 23 29 24 19 21 20 19 19 19 18 18 19 20 21 22 25 27 27 28 29 30 30 30 32 34 35 37
21 22 24 23 20 14 14 13 13 16 16 15 16 19 20 23 28 30 27 21 20 21 22 23 21 21 21 22 21 22 25 26 27 30 32 35 36 35 36 34 32 35 35
23 24 26 24 22 18 17 16 16 18 18 19 19 22 22 23 27 30 24 21 23 25 25 27 26 25 27 28 25 24 26 30 32 31 31 32 38 42 43 43 41 41 42
25 25 28 26 26 24 20 19 20 20 20 21 26 27 18 22 25 22 20 19 20 23 26 28 28 29 30 32 33 34 32 36 42 43 43 44 42 41 41 44 47 49 47
24 26 29 29 29 25 24 25 22 22 23 26 31 34 18 19 21 20 19 20 23 28 26 29 31 33 37 39 39 38 41 42 41 45 46 45 45 45 47 49 47 46 47
21 28 29 30 29 27 28 30 23 21 28 21 28 22 20 21 22 21 21 24 26 27 29 32 35 37 38 41 44 45 47 47 45 44 48 51 53 51 49 48 49 49 48
25 25 31 32 31 28 29 30 27 23 28 36 34 21 22 23 23 22 25 27 29 31 32 35 37 39 41 44 45 46 47 47 49 51 53 45 45 44 45 46 47 50 51
24 25 29 32 34 32 31 32 32 32 29 37 27 25 25 26 23 27 29 28 30 32 34 36 38 41 43 44 45 46 47 47 47 46 45 42 42 43 45 46 46 45 45
23 24 30 35 36 37 37 38 40 37 36 35 41 30 22 27 28 30 29 30 32 34 35 36 40 42 42 41 40 43 45 42 37 38 40 39 42 44 47 48 49 48 46
29 28 29 32 38 39 42 46 45 44 44 39 39 28 29 31 30 35 31 32 34 35 37 38 41 41 38 36 36 36 34 35 34 34 40 42 42 44 45 42 41 43 44

GFSMA_500_spd_021.txt.gz
Wind_Speed
13 12 12 11 10 9 8 6 6 6 5 4 4 4 4 6 7 7 6 5 5 5 3 4 5 6 4 8 10 10 12 14 12 10 11 11 13 10 8 7 7 7 6
11 10 9 9 6 5 5 4 5 5 5 4 4 4 3 3 5 6 7 5 5 5 4 4 4 4 4 2 3 6 10 11 12 11 11 11 8 13 11 9 8 8 7
9 8 7 7 6 7 7 7 7 8 7 6 5 5 4 4 3 4 6 8 7 6 5 4 3 3 4 3 3 5 7 10 13 13 10 7 8 12 14 11 10 9 8
5 5 5 5 7 10 11 10 9 7 7 6 5 5 4 5 6 5 3 6 7 7 6 5 3 3 4 5 4 4 5 8 7 8 5 6 8 11 16 14 12 11 11
3 2 4 7 10 11 12 12 11 9 8 7 6 5 6 6 6 6 5 2 3 3 4 5 5 5 4 4 6 7 7 7 9 7 6 7 11 11 17 16 14 13 11
3 2 5 8 10 12 13 13 13 11 11 10 8 5 4 5 7 7 6 6 5 3 3 4 4 6 7 7 7 6 6 8 10 11 10 10 10 10 13 18 13 14 14
1 3 6 9 10 13 13 13 14 16 17 15 10 6 5 5 6 8 9 8 8 8 7 6 6 7 8 9 10 11 9 9 9 10 12 12 12 10 9 9 16 18 16
4 6 8 10 10 11 12 11 18 21 21 17 10 3 2 5 5 7 9 10 11 11 10 10 10 10 11 11 11 12 13 14 13 13 12 11 11 13 11 12 13 14 22
4 7 9 12 11 10 12 12 18 19 21 19 12 8 5 1 2 4 6 9 11 12 13 14 14 14 15 15 15 15 16 17 15 15 15 13 12 11 13 13 13 15 17
3 4 7 11 11 11 12 11 15 16 17 16 15 12 11 9 6 4 3 4 6 8 10 14 16 17 18 18 19 20 20 20 18 18 18 18 18 17 15 14 15 14 13
6 5 8 11 11 10 10 10 12 12 13 12 13 9 10 10 11 11 10 9 9 9 11 12 14 16 18 20 23 23 23 23 23 21 20 20 21 21 21 20 18 18 17
9 8 8 10 12 11 9 8 10 13 12 10 9 9 9 9 9 8 9 11 11 11 11 12 14 15 17 18 19 19 20 21 22 23 23 23 24 23 24 25 24 23 21
15 10 9 10 11 11 9 7 10 12 13 12 10 10 10 9 9 9 9 10 10 11 11 9 9 11 14 16 18 20 20 20 21 22 24 26 27 28 28 27 26 26 26
18 13 12 11 12 11 10 6 8 11 13 9 10 11 9 10 11 14 14 14 13 14 13 12 10 11 14 16 17 18 19 21 21 21 22 25 27 29 29 30 30 28 28
20 17 15 13 12 11 11 7 7 10 12 12 13 9 7 8 10 15 19 15 14 14 16 14 14 15 16 18 19 19 19 20 22 24 25 27 28 29 31 32 34 35 35
22 19 18 16 14 13 11 9 8 10 13 13 12 11 12 13 14 18 20 17 12 12 13 14 14 16 15 15 16 17 18 20 22 26 28 30 31 32 33 34 34 34 37
25 21 20 20 17 15 12 10 9 10 12 15 14 14 14 16 18 18 17 14 11 10 11 13 15 16 16 16 19 23 25 25 27 29 32 33 35 36 36 38 38 36 35
28 26 24 23 20 19 14 12 10 12 13 15 18 20 20 25 17 18 13 9 9 10 15 18 17 17 20 21 23 26 28 30 31 34 37 39 40 39 38 40 43 44 44
24 25 25 25 23 22 17 15 13 13 15 18 21 25 28 26 12 13 14 11 12 15 16 19 21 20 20 22 24 26 28 31 36 39 40 41 43 45 44 42 42 41 41
19 21 24 27 26 26 22 19 18 18 16 20 23 22 21 12 14 16 14 13 14 16 18 21 23 25 26 27 28 28 28 31 35 39 44 47 46 41 43 42 42 43 43
16 17 23 29 29 30 25 22 22 20 15 21 21 26 24 16 12 17 16 17 16 18 18 23 25 26 27 28 30 33 36 39 41 45 45 40 49 50 49 47 46 44 44
16 18 18 27 31 30 28 26 24 24 21 20 23 22 21 20 15 17 19 23 23 23 23 27 28 26 27 28 31 35 39 41 42 43 44 44 44 44 42 41 41 41 41
22 20 20 22 28 31 29 29 26 24 22 25 26 27 26 24 26 23 20 24 26 25 27 29 29 28 28 32 33 35 37 39 41 43 41 37 38 36 37 39 42 44 45
27 27 21 22 26 30 30 31 31 32 30 27 28 32 33 34 33 29 28 29 29 29 30 33 31 28 29 32 33 34 35 37 37 36 35 33 35 38 40 43 44 44 45
29 28 24 22 24 27 30 34 38 39 38 35 34 36 39 39 39 32 34 33 33 35 35 35 33 31 31 31 32 34 34 34 32 31 31 35 38 40 42 42 43 44 43
33 32 30 28 25 24 25 30 37 38 41 40 39 43 44 44 43 45 39 39 36 40 39 34 32 33 33 31 31 33 32 30 29 30 32 35 37 38 39 41 44 44 43

GFSMA_500_spd_024.txt.gz
Wind_Speed
12 12 10 9 8 7 5 5 4 5 7 8 8 8 6 6 6 9 9 8 7 5 4 3 3 4 2 6 8 8 9 12 15 14 13 13 14 15 13 10 8 8 8
11 9 7 6 5 5 4 5 4 4 5 6 6 7 7 6 4 6 8 7 6 5 4 3 3 4 3 1 2 5 8 9 12 15 16 14 13 12 15 13 10 9 9
10 8 6 5 5 7 5 5 5 4 4 3 5 5 5 5 6 6 6 6 6 6 5 5 4 3 4 5 4 5 7 8 9 9 10 10 8 12 14 16 13 11 11
7 6 5 4 7 9 8 7 5 5 5 5 4 5 5 4 4 6 5 4 5 5 4 3 3 3 3 4 6 5 7 8 10 10 7 6 8 12 11 17 16 13 12
5 2 4 6 9 11 10 9 9 8 8 6 5 5 4 4 4 4 5 5 4 4 5 5 5 5 5 6 7 7 6 5 6 9 10 11 11 11 11 11 18 15 13
3 3 4 8 11 12 11 11 13 12 8 7 5 4 4 4 5 4 5 6 7 7 7 7 8 8 8 8 9 11 12 14 12 10 10 10 11 12 13 12 16 16 15
4 4 6 7 10 11 11 11 12 16 13 7 5 1 1 3 4 5 5 6 7 8 9 9 10 10 11 13 13 13 14 15 16 16 14 15 14 13 13 14 11 16 15
5 4 4 7 9 9 9 10 13 18 18 14 11 7 4 3 3 4 5 6 7 8 10 11 11 12 13 13 14 16 17 17 17 16 16 14 15 15 14 14 16 14 14
5 4 4 6 8 8 9 10 13 16 16 15 15 12 8 6 4 5 5 5 4 6 7 9 11 12 13 13 14 15 17 20 21 20 19 17 15 15 17 17 16 18 19
1 1 3 6 9 9 7 7 11 13 12 13 12 11 10 10 8 8 6 5 4 4 5 7 9 10 11 13 15 18 20 20 21 22 23 22 22 20 18 18 20 19 19
6 5 4 4 6 8 8 6 10 11 11 11 10 11 10 9 9 8 7 7 7 8 9 9 10 11 11 12 14 16 17 18 17 19 20 22 23 24 24 22 21 22 23
10 10 8 7 5 6 6 5 7 9 10 9 10 10 11 11 11 10 10 10 10 10 11 11 12 10 10 13 16 17 16 18 18 19 20 21 24 26 27 27 28 27 26
14 12 11 12 9 5 5 4 4 9 10 9 9 12 11 11 11 12 13 13 11 9 10 10 10 11 11 12 13 16 17 18 19 22 22 22 24 26 30 32 33 32 32
17 15 14 14 13 9 4 4 2 7 9 11 11 12 10 10 11 11 14 12 10 7 9 10 9 8 8 8 9 10 13 15 18 21 23 25 28 29 30 31 34 35 35
19 19 17 17 16 13 8 5 3 2 6 9 10 8 9 11 12 14 17 13 9 6 9 7 7 9 9 10 11 12 14 17 20 22 22 25 28 31 34 36 37 36 37
21 20 19 19 18 16 14 8 5 2 2 6 11 10 13 13 15 13 14 11 8 4 4 7 9 10 11 13 15 18 20 21 22 23 24 26 29 34 37 39 39 37 35
22 21 21 22 21 19 16 12 10 6 4 7 11 14 15 17 17 10 9 8 6 4 5 8 10 15 17 19 19 21 24 25 27 28 29 32 35 39 40 40 39 40 41
25 25 25 25 25 21 18 17 14 10 8 8 12 15 20 18 12 3 6 6 7 7 11 12 13 14 18 21 23 24 25 27 30 30 34 37 40 43 42 42 43 45 46
17 16 18 21 26 25 22 21 18 13 11 9 12 15 10 4 2 4 5 7 10 15 16 17 17 19 21 24 25 26 25 26 29 32 35 39 42 43 44 41 40 42 41
11 12 14 17 22 26 26 23 20 18 15 14 16 13 14 16 9 9 8 11 13 15 19 22 25 26 27 29 29 27 26 28 30 35 38 41 41 43 43 44 41 38 34
8 9 11 14 20 25 27 25 20 22 18 17 15 14 14 15 15 14 13 14 16 20 21 25 27 31 32 34 33 31 33 33 33 34 40 43 44 42 41 37 36 35 36
11 10 13 16 18 20 25 27 24 22 23 22 24 18 20 22 22 20 21 21 22 22 24 25 28 33 33 36 35 34 35 35 36 37 39 41 41 37 36 39 42 44 44
18 15 16 17 17 18 19 20 22 23 21 22 20 20 24 24 27 28 31 28 30 29 31 30 34 38 39 35 35 36 33 35 36 40 37 38 35 33 37 41 41 44 45
22 21 20 21 21 19 22 21 22 22 25 27 30 30 29 30 30 33 36 34 33 34 36 37 39 41 40 35 35 35 35 33 37 39 35 35 36 34 35 40 43 44 43
28 27 27 27 25 22 23 25 27 30 29 31 32 33 32 31 37 39 41 41 40 41 44 44 43 44 43 36 36 35 33 34 36 37 31 33 34 35 37 42 46 43 42
33 35 32 32 33 32 27 27 30 35 35 32 31 33 32 34 43 45 46 46 48 49 47 44 46 45 44 37 37 35 32 35 36 36 29 32 35 37 38 42 44 43 40